• In Hungary
  • List of Countries
  • For 7 days
  • Water Temperature
  • Satellite Maps
  • Weather Map
  • News
  • Weather Widgets
  • user-avatar
    Login

    Hourly Weather Patna

    Today, 20 August, Sunday

    Time Temperature Precipitation Wind Pressure Humidity
    00:00 +31°C° 0 mm 3 mps 748 mmHg 74%
    01:00 +31°C° 0.5 mm 3 mps 748 mmHg 77%
    02:00 +30°C° 0.5 mm 3 mps 748 mmHg 79%
    03:00 +30°C° 0.5 mm 3 mps 747 mmHg 81%
    04:00 +30°C° 0 mm 3 mps 747 mmHg 82%
    05:00 +29°C° 0 mm 3 mps 747 mmHg 83%
    06:00 +29°C° 0 mm 2 mps 747 mmHg 86%
    07:00 +30°C° 0 mm 3 mps 747 mmHg 80%
    08:00 +33°C° 0 mm 4 mps 748 mmHg 74%
    09:00 +34°C° 0 mm 4 mps 748 mmHg 68%
    10:00 +35°C° 0 mm 5 mps 747 mmHg 63%
    11:00 +36°C° 0 mm 5 mps 747 mmHg 58%
    12:00 +37°C° 0 mm 5 mps 748 mmHg 54%
    13:00 +37°C° 0 mm 5 mps 747 mmHg 53%
    14:00 +37°C° 0 mm 5 mps 746 mmHg 53%
    15:00 +37°C° 0 mm 4 mps 746 mmHg 53%
    16:00 +37°C° 0 mm 4 mps 745 mmHg 55%
    17:00 +37°C° 0 mm 3 mps 745 mmHg 57%
    18:00 +36°C° 0 mm 3 mps 745 mmHg 60%
    19:00 +35°C° 0 mm 3 mps 746 mmHg 62%
    20:00 +34°C° 0 mm 3 mps 746 mmHg 65%
    21:00 +34°C° 0 mm 3 mps 746 mmHg 67%
    22:00 +33°C° 0 mm 3 mps 746 mmHg 68%
    23:00 +33°C° 0 mm 3 mps 746 mmHg 70%

    Tomorrow, 21 August, Monday

    Time Temperature Precipitation Wind Pressure Humidity
    00:00 +31°C° 0 mm 3 mps 747 mmHg 71%
    01:00 +31°C° 0 mm 3 mps 746 mmHg 73%
    02:00 +31°C° 0 mm 2 mps 746 mmHg 74%
    03:00 +30°C° 0 mm 2 mps 746 mmHg 76%
    04:00 +30°C° 0 mm 2 mps 746 mmHg 77%
    05:00 +30°C° 0 mm 2 mps 746 mmHg 78%
    06:00 +30°C° 0 mm 2 mps 746 mmHg 80%
    07:00 +31°C° 0.1 mm 2 mps 747 mmHg 74%
    08:00 +33°C° 0.1 mm 3 mps 747 mmHg 69%
    09:00 +34°C° 0.1 mm 3 mps 747 mmHg 64%
    10:00 +35°C° 0.1 mm 3 mps 747 mmHg 60%
    11:00 +36°C° 0.1 mm 4 mps 747 mmHg 56%
    12:00 +37°C° 0.1 mm 4 mps 747 mmHg 52%
    13:00 +37°C° 0.1 mm 3 mps 746 mmHg 52%
    14:00 +38°C° 0.1 mm 3 mps 745 mmHg 51%
    15:00 +38°C° 0.1 mm 3 mps 745 mmHg 50%
    16:00 +38°C° 0 mm 3 mps 744 mmHg 51%
    17:00 +37°C° 0 mm 2 mps 744 mmHg 52%
    18:00 +37°C° 0 mm 2 mps 744 mmHg 53%
    19:00 +36°C° 0 mm 2 mps 744 mmHg 56%
    20:00 +36°C° 0 mm 2 mps 745 mmHg 58%
    21:00 +35°C° 0 mm 2 mps 745 mmHg 61%
    22:00 +34°C° 0 mm 2 mps 745 mmHg 62%
    23:00 +34°C° 0 mm 2 mps 745 mmHg 64%

    Day after tomorrow, 22 August, Tuesday

    Time Temperature Precipitation Wind Pressure Humidity
    00:00 +34°C° 0 mm 2 mps 745 mmHg 66%
    01:00 +32°C° 0 mm 2 mps 745 mmHg 67%
    02:00 +32°C° 0 mm 2 mps 745 mmHg 68%
    03:00 +32°C° 0 mm 2 mps 745 mmHg 69%
    04:00 +31°C° 0 mm 2 mps 745 mmHg 71%
    05:00 +31°C° 0 mm 2 mps 745 mmHg 72%
    06:00 +31°C° 0 mm 2 mps 745 mmHg 73%
    07:00 +32°C° 0 mm 2 mps 746 mmHg 69%
    08:00 +34°C° 0 mm 2 mps 746 mmHg 64%
    09:00 +35°C° 0 mm 2 mps 747 mmHg 59%
    10:00 +36°C° 0.1 mm 2 mps 746 mmHg 55%
    11:00 +37°C° 0.1 mm 2 mps 746 mmHg 51%
    12:00 +39°C° 0.1 mm 2 mps 746 mmHg 47%
    13:00 +39°C° 0 mm 2 mps 746 mmHg 47%
    14:00 +39°C° 0 mm 2 mps 745 mmHg 46%
    15:00 +39°C° 0 mm 2 mps 744 mmHg 46%
    16:00 +39°C° 0 mm 2 mps 744 mmHg 48%
    17:00 +37°C° 0 mm 1 mps 744 mmHg 50%
    18:00 +37°C° 0 mm 1 mps 744 mmHg 51%
    19:00 +36°C° 0 mm 1 mps 744 mmHg 53%
    20:00 +37°C° 0 mm 2 mps 745 mmHg 55%
    21:00 +36°C° 0 mm 2 mps 745 mmHg 57%
    22:00 +35°C° 0 mm 2 mps 746 mmHg 59%
    23:00 +35°C° 0 mm 2 mps 746 mmHg 60%

    23 August, Wednesday

    Time Temperature Precipitation Wind Pressure Humidity
    00:00 +35°C° 0 mm 2 mps 746 mmHg 62%
    01:00 +34°C° 0 mm 2 mps 745 mmHg 63%
    02:00 +34°C° 0 mm 2 mps 745 mmHg 65%
    03:00 +34°C° 0 mm 2 mps 745 mmHg 66%
    04:00 +32°C° 0 mm 2 mps 745 mmHg 67%
    05:00 +32°C° 0 mm 2 mps 746 mmHg 68%
    06:00 +32°C° 0 mm 2 mps 746 mmHg 69%
    07:00 +34°C° 0 mm 2 mps 746 mmHg 65%
    08:00 +35°C° 0 mm 2 mps 747 mmHg 61%
    09:00 +36°C° 0 mm 2 mps 747 mmHg 56%
    10:00 +38°C° 0 mm 2 mps 747 mmHg 52%
    11:00 +39°C° 0 mm 2 mps 747 mmHg 48%
    12:00 +40°C° 0 mm 2 mps 747 mmHg 44%
    13:00 +40°C° 0 mm 1 mps 746 mmHg 44%
    14:00 +40°C° 0 mm 1 mps 745 mmHg 44%
    15:00 +40°C° 0 mm 1 mps 745 mmHg 44%
    16:00 +39°C° 0 mm 1 mps 744 mmHg 45%
    17:00 +39°C° 0 mm 1 mps 744 mmHg 47%
    18:00 +39°C° 0 mm 1 mps 744 mmHg 49%
    19:00 +37°C° 0 mm 1 mps 744 mmHg 51%
    20:00 +36°C° 0 mm 1 mps 745 mmHg 53%
    21:00 +36°C° 0 mm 1 mps 745 mmHg 55%
    22:00 +35°C° 0 mm 1 mps 745 mmHg 57%
    23:00 +35°C° 0 mm 1 mps 746 mmHg 59%

    24 August, Thursday

    Time Temperature Precipitation Wind Pressure Humidity
    00:00 +34°C° 0 mm 1 mps 746 mmHg 61%
    01:00 +34°C° 0 mm 1 mps 745 mmHg 62%
    02:00 +34°C° 0 mm 1 mps 745 mmHg 64%
    03:00 +33°C° 0 mm 1 mps 745 mmHg 65%
    04:00 +33°C° 0.2 mm 1 mps 745 mmHg 67%
    05:00 +34°C° 0.2 mm 2 mps 745 mmHg 68%
    06:00 +32°C° 0.2 mm 2 mps 746 mmHg 70%
    07:00 +34°C° 0.4 mm 2 mps 746 mmHg 67%
    08:00 +35°C° 0.4 mm 2 mps 747 mmHg 63%
    09:00 +36°C° 0.4 mm 2 mps 747 mmHg 60%
    10:00 +37°C° 1.1 mm 2 mps 747 mmHg 57%
    11:00 +37°C° 1.1 mm 2 mps 747 mmHg 54%
    12:00 +38°C° 1.1 mm 2 mps 746 mmHg 51%
    13:00 +38°C° 0 mm 2 mps 746 mmHg 50%
    14:00 +38°C° 0 mm 2 mps 745 mmHg 50%
    15:00 +39°C° 0 mm 2 mps 744 mmHg 49%
    16:00 +38°C° 0 mm 2 mps 744 mmHg 52%
    17:00 +38°C° 0 mm 2 mps 744 mmHg 54%
    18:00 +37°C° 0 mm 2 mps 744 mmHg 57%
    19:00 +36°C° 0.1 mm 2 mps 744 mmHg 60%
    20:00 +35°C° 0.1 mm 2 mps 745 mmHg 63%
    21:00 +34°C° 0.1 mm 2 mps 745 mmHg 67%
    22:00 +34°C° 0.7 mm 2 mps 745 mmHg 69%
    23:00 +34°C° 0.7 mm 2 mps 745 mmHg 71%

    25 August, Friday

    Time Temperature Precipitation Wind Pressure Humidity
    00:00 +32°C° 0.7 mm 2 mps 745 mmHg 73%
    01:00 +32°C° 0.6 mm 2 mps 745 mmHg 74%
    02:00 +32°C° 0.6 mm 2 mps 745 mmHg 76%
    03:00 +31°C° 0.6 mm 2 mps 744 mmHg 77%
    04:00 +31°C° 0.1 mm 2 mps 744 mmHg 78%
    05:00 +31°C° 0.1 mm 2 mps 745 mmHg 79%
    06:00 +31°C° 0.1 mm 2 mps 745 mmHg 80%
    07:00 +32°C° 0.3 mm 2 mps 745 mmHg 74%
    08:00 +34°C° 0.3 mm 2 mps 745 mmHg 69%
    09:00 +35°C° 0.3 mm 2 mps 746 mmHg 63%
    10:00 +36°C° 0 mm 2 mps 745 mmHg 59%
    11:00 +37°C° 0 mm 2 mps 745 mmHg 54%
    12:00 +39°C° 0 mm 3 mps 745 mmHg 50%
    13:00 +39°C° 0 mm 3 mps 744 mmHg 49%
    14:00 +39°C° 0 mm 2 mps 743 mmHg 49%
    15:00 +39°C° 0 mm 2 mps 743 mmHg 48%
    16:00 +39°C° 0 mm 2 mps 742 mmHg 50%
    17:00 +38°C° 0 mm 2 mps 742 mmHg 51%
    18:00 +38°C° 0 mm 2 mps 742 mmHg 53%
    19:00 +37°C° 0 mm 2 mps 742 mmHg 55%
    20:00 +37°C° 0 mm 2 mps 743 mmHg 58%
    21:00 +36°C° 0 mm 2 mps 743 mmHg 60%
    22:00 +35°C° 0 mm 2 mps 743 mmHg 62%
    23:00 +35°C° 0 mm 2 mps 743 mmHg 64%
    Show more